STARLINK-32582, 62033

Orbit data source: Space-Track

STARLINK-32582, 62033 is a payload satellite owned by SpaceX/Seattle (US) in LEO that was launched on Thu, 21 Nov 2024 UTC via an FALCON 9 launch vehicle from the Air Force Eastern Test Range (AFETR). Payloads include a variety of satellites, spacecraft, and rockets equipped with specific instruments for various scientific and technological missions. These include communications satellites like Starlink; space stations such as the ISS; scientific satellites like the Hubble; Earth observation satellites from companies like Planet Labs, Umbra, and HawkEye 360; GPS; miniature CubeSats for education and research; and military/defense satellites.

Loading next visibility...
STARLINK-32582 details
Identifier
62033, 2024-216B
Orbit
LEO
Last TLE update20 hours ago
Origin
Flag of USSpaceX/Seattle (US)
ManufacturerSpaceX/Seattle
MissionOperational spacecraft
Bus & MotorSTARLINK V2M, Unknown motor
Mass730 kg wet, ~700 kg dry
Launch date (UTC)
2024-11-21 (1 month ago)
Launch vehicle
FALCON 9
Launch site
Air Force Eastern Test Range (AFETR)
Object type
Payload
Rocket body
Debris
Shape & HBRUnknown
Radar Cross SectionLarge (>1 m²)

Expand to show TLE details & history

TLE from 20 hours ago
0 STARLINK-32582
1 62033U 24216B   24360.58335648 -.00000821  00000-0 -12401-4 0  9991
2 62033  42.9990 237.1201 0001993 255.2313 257.7825 15.40688384  6399
Epoch: 2024-12-25T14:00Z
Definitive object data (Epoch: 2024-12-25T14:00:01.999Z)
Latitude18.09322°
Longitude92.14544°
Altitude443.57 km
Speed7.649 km/s
True Right ascension02h 26m 54s
True Declination17° 59' 14"
Sunlit
Object was in full shadow at TLE epoch
Visualization TLE readout
Latitude-23.15902°
Longitude134.75564°
Altitude448.625 km
Speed7.644 km/s
Apparent Right ascension02h 15m 20s
Apparent Declination-46° 33' 03"
Sunlit
Object is in full shadow
Visualization observer readout
Local Sidereal Time09:50:53
Azimuth238.979° WSW
Elevation-42.798°
Doppler factor1
Orbital elements
Apogee altitude447.393 km
Perigee altitude444.673 km
Semi-major axis6,824.17 km
Eccentricity0.0001993
Inclination42.999°
RAAN237.1201°
Arg. of periapsis255.2313°
True anomaly257.76018°
Mean anomaly257.7825°
Eccentric anomaly257.77134°
Mean motion3.85007 °/min
BSTAR-0.000012401
Orbital period93.5 mins
Loading maneuver chart data...
Loading historical data...
Loading historical data...
Loading historical data...
Loading historical data...
Loading historical data...
Loading historical data...
Loading historical data...

STARLINK-32582 Visibility forecast

Observer location: undefined°, undefined

Span
Click to sort rows by Start time (UTC) header in descending order
Start Az.
Max El. time (UTC)
Max El. Az.
Max El.
End time (UTC)
End Az.
5 mins2024-12-26 19:06:41.809Z216.235° SW2024-12-26 19:09:41.809Z137.299° SSE30.851°2024-12-26 19:11:41.809Z89.822° E
5 mins2024-12-26 20:45:41.809Z273.897° WNW2024-12-26 20:47:41.809Z21.302° NNE40.74°2024-12-26 20:50:41.809Z70.024° E
5 mins2024-12-26 22:23:41.809Z296.575° NW2024-12-26 22:25:41.809Z5.789° NNE38.202°2024-12-26 22:28:41.809Z81.746° E
5 mins2024-12-27 00:01:41.809Z280.801° WNW2024-12-27 00:03:41.809Z222.224° SW42.095°2024-12-27 00:06:41.809Z122.202° SE
|